Back to catalog

STARLINK-35416

AliveCommunicationsVLEO
NORAD 66248·PAYLOAD·🇺🇸 United States

Launched Oct 29, 2025 from Cape Canaveral Space Force Station

Loading…

Next Passes (next 24 hours)

TLE

FreshSource: CelesTrak SupGP

Epoch: Sep 14, 2026, 21:02 UTC

1 66248C 25245Q   26257.87687500 -.00013266  00000+0 -42682-3 0  2578
2 66248  53.1582 123.6578 0001360  85.6592 244.5424 15.31692757    11

Track STARLINK-35416 in real time with AllMySat

Download on the App Store